Terminal Aerodrome Forecast
Issued by NWS

Home | Current Version | Previous Version | Text Only | Print | Product List | Glossary On
Versions: 1 2 3 4 5 6 7 8 9 10 11 12 13 14 15 16 17
495
FTPA31 PHFO 021121
TAFHNY
TAF
PHNY 021121Z 0212/0312 04015KT P6SM FEW035
     FM022000 04020G28KT P6SM FEW035=

USA.gov is the U.S. government's official web portal to all federal, state and local government web resources and services.